NOAA 16 DEB, 42341

Orbit data source: Space-Track

NOAA 16 DEB, 42341 is space debris in SSO originally from a launch on Thu, 21 Sep 2000 UTC launched from the Air Force Western Test Range (AFWTR). Debris objects in space refer to the collection of defunct objects orbiting the Earth. Examples of debris include non-operational satellites, rocket bodies, and fragments generated from explosions, collisions, or faulty payload assembly.

Loading next visibility...
Identifier
42341, 2000-055QH
Orbit
SSO
Country
Flag of USUS
Related business
Manufacturer
Unknown
Mission
Spacecraft
Bus & Motor
Unknown
Mass
Unknown
Launch date (UTC)
2000-09-21 (25 years ago)
Launch vehicle
Unknown
Launch site
Air Force Western Test Range (AFWTR)
Object type
Payload
Rocket body
Debris
Shape & HBR
Unknown shape, 0.1 m
Radar Cross Section
Small (<0.1 m²)

Expand to show TLE details & history
Last TLE update: 2 days ago

TLE from 2 days ago
0 NOAA 16 DEB
1 42341U 00055QH  26037.19006641  .00033440  00000-0  51927-2 0  9999
2 42341  98.7197 179.5087 0023450  46.0139 314.2995 14.72798141521499
Epoch: 2026-02-06T04:33Z
TLE epoch observation values (Epoch: 2026-02-06T04:33:41.737Z)
Latitude
-0.00002°
Longitude
-25.2467°
Altitude
643.639 km
Speed
7.542 km/s
True Right ascension
11h 58m 02s
True Declination
0° 00' 00"
Sunlit
Object was in full shadow at epoch
Visualization orbit readout
Latitude
Unknown
Longitude
Unknown
Altitude
Unknown
Speed
Unknown
Apparent Right ascension
Unknown
Apparent Declination
Unknown
Sunlit
N/A
Visualization observer readout
Local Sidereal Time
19:08:13
Azimuth
Unknown
Elevation
Unknown
Doppler factor
Unknown
Orbital elements
Apogee altitude
665.718 km
Perigee altitude
632.759 km
Semi-major axis
7,027.375 km
Eccentricity
0.00235
Inclination
98.7197°
RAAN
179.5087°
Arg. of periapsis
46.0139°
True anomaly
314.10679°
Mean anomaly
314.2995°
Eccentric anomaly
314.20318°
Mean motion
3.68429 °/min
Orbital period
97.71 mins
BSTAR
0.0051927
Loading maneuver chart data...
Computing Atmospheric mass density...
Loading historical data...
Loading historical data...
Loading historical data...
Loading historical data...
Loading historical data...
Loading historical data...
Loading historical data...

Documentation

Showing up to 5 results
|